CZ-6A DEB, 54458

Orbit data source: Space-Track

CZ-6A DEB, 54458 is space debris in SSO originally from a launch on Fri, 11 Nov 2022 UTC launched from the Taiyaun Space Center, China (TSC). Debris objects in space refer to the collection of defunct objects orbiting the Earth. Examples of debris include non-operational satellites, rocket bodies, and fragments generated from explosions, collisions, or faulty payload assembly.

Loading next visibility...
Identifier
54458, 2022-151GJ
Orbit
SSO
Country
Flag of CNCN / PRC
Related business
Manufacturer
SAST
Mission
Spacecraft
Bus & Motor
Unknown
Mass
Unknown
Launch date (UTC)
2022-11-11 (3 years ago)
Launch vehicle
Unknown
Launch site
Taiyaun Space Center, China (TSC)
Object type
Payload
Rocket body
Debris
Shape & HBR
Unknown shape, 0.1 m
Radar Cross Section
Small (<0.1 m²)

Expand to show TLE details & history
Last TLE update: 8 hours ago

TLE from 8 hours ago
0 CZ-6A DEB
1 54458U 22151GJ  25354.13074397  .00001962  00000-0  70044-3 0  9996
2 54458  99.0433  53.4353 0145304 336.3696  23.0854 14.29666065161074
Epoch: 2025-12-20T03:08Z
TLE epoch observation values (Epoch: 2025-12-20T03:08:16.279Z)
Latitude
-0.00009°
Longitude
-82.59447°
Altitude
700.13 km
Speed
7.556 km/s
True Right ascension
03h 33m 44s
True Declination
0° 00' 00"
Sunlit
Object was in full shadow at epoch
Visualization orbit readout
Latitude
Unknown
Longitude
Unknown
Altitude
Unknown
Speed
Unknown
Apparent Right ascension
Unknown
Apparent Declination
Unknown
Sunlit
N/A
Visualization observer readout
Local Sidereal Time
10:23:02
Azimuth
Unknown
Elevation
Unknown
Doppler factor
Unknown
Orbital elements
Apogee altitude
894.164 km
Perigee altitude
685.852 km
Semi-major axis
7,168.145 km
Eccentricity
0.01453
Inclination
99.0433°
RAAN
53.4353°
Arg. of periapsis
336.3696°
True anomaly
23.74935°
Mean anomaly
23.0854°
Eccentric anomaly
23.41625°
Mean motion
3.57629 °/min
Orbital period
100.66 mins
BSTAR
0.00070044
Loading maneuver chart data...
Computing Atmospheric mass density...
Loading historical data...
Loading historical data...
Loading historical data...
Loading historical data...
Loading historical data...
Loading historical data...
Loading historical data...

Documentation

Showing up to 5 results
|